Regional Weather Roundup
Issued by NWS

Home | Current Version | Previous Version | Graphics & Text | Print | Product List | Glossary On
Versions: 1 2 3 4 5 6 7 8 9 10 11 12 13 14 15 16 17 18 19 20 21 22 23 24 25 26 27
000
ASUS45 KBOI 041610
RWRID

IDAHO REGIONAL WEATHER ROUNDUP
NATIONAL WEATHER SERVICE BOISE ID
1000 AM MDT WED MAY 04 2016

NOTE: "FAIR" INDICATES FEW OR NO CLOUDS BELOW 12000 FEET
WITH NO SIGNIFICANT WEATHER AND/OR OBSTRUCTIONS TO VISIBILITY

IDZ012-014-041700-
SOUTHWEST IDAHO


CITY           SKY/WX    TMP DP  RH WIND       PRES   REMARKS
BOISE          MOSUNNY   66  38  35 NW5       29.99S
CALDWELL       MOSUNNY   65  38  36 E7        29.98F
MOUNTAIN HOME  MOSUNNY   66  35  32 E21G26    30.00F
$$

IDZ016-017-041700-
SOUTHCENTRAL IDAHO


CITY           SKY/WX    TMP DP  RH WIND       PRES   REMARKS
BURLEY         SUNNY     60  43  53 N6        30.09S
JEROME         MOSUNNY   64  40  41 NE16      30.08S
TWIN FALLS     SUNNY     63  40  42 NE6       30.07F
$$

IDZ019>023-041700-
SOUTHEAST IDAHO


CITY           SKY/WX    TMP DP  RH WIND       PRES   REMARKS
IDAHO FALLS    PTSUNNY   60  37  42 N6        30.17S
POCATELLO      MOSUNNY   59  42  53 NE7       30.15F
REXBURG        CLOUDY    58  33  39 CALM      30.17F
$$

IDZ006-010-011-018-031-032-041700-
CENTRAL IDAHO MOUNTAINS


CITY           SKY/WX    TMP DP  RH WIND       PRES   REMARKS
MCCALL         MOSUNNY   54  40  59 CALM      30.07F
HAILEY         MOSUNNY   55  34  44 NW12      30.18F
STANLEY          N/A     46  30  53 VRB3      30.21F
SALMON         MOSUNNY   54  34  47 CALM      30.12F
CHALLIS        MOSUNNY   53  29  39 CALM      30.16F
$$

IDZ002-004-006-007-026-041700-
NORTHERN IDAHO


CITY           SKY/WX    TMP DP  RH WIND       PRES   REMARKS
LEWISTON       PTSUNNY   64  49  57 NW3       30.01R
LOWELL           N/A     59  47  64 CALM      30.05F
COEUR D`ALENE  PTSUNNY   63  46  55 S12       29.98F
MULLAN PASS    PTSUNNY   54  33  45 SW5       30.12S
$$




USA.gov is the U.S. government's official web portal to all federal, state and local government web resources and services.